IGO1131 VABB-VRMM

Flight info

Callsign IGO1131
Flight time 2h 21m
Altitude 39000
Route VEVAK2A MABTA W15 MML/N0445F380 DCT AKLON DCT OSERA DCT PATLO PATLO1A
Aircraft A20N/M-SDE2E3FGHIRWXY/LB1

Departure

Time 2026-04-28 05:44
Airport Chhatrapati Shivaji Maharaj International Airport (VABB)

Arrival

Time 2026-04-28 08:05
Airport Velana International Airport (VRMM)
Time Latitude Longitude Altitude Speed Heading
2026-04-28 05:28 19.09511 72.87534 49 ft 0 kts 39°
2026-04-28 05:36 19.09508 72.87531 49 ft 2 kts 39°
2026-04-28 05:36 19.09496 72.87521 47 ft 2 kts 39°
2026-04-28 05:36 19.09485 72.87511 47 ft 2 kts 39°
2026-04-28 05:36 19.09473 72.87501 48 ft 2 kts 39°
2026-04-28 05:37 19.09462 72.87491 48 ft 2 kts 39°
2026-04-28 05:37 19.09450 72.87481 46 ft 2 kts 39°
2026-04-28 05:37 19.09438 72.87471 49 ft 2 kts 43°
2026-04-28 05:37 19.09429 72.87459 49 ft 2 kts 62°
2026-04-28 05:38 19.09423 72.87445 49 ft 2 kts 80°
2026-04-28 05:38 19.09422 72.87442 49 ft 0 kts 83°
2026-04-28 05:39 19.09423 72.87446 49 ft 2 kts 83°
2026-04-28 05:39 19.09408 72.87492 46 ft 11 kts 126°
2026-04-28 05:39 19.09348 72.87567 49 ft 15 kts 130°
2026-04-28 05:39 19.09272 72.87659 49 ft 17 kts 136°
2026-04-28 05:40 19.09190 72.87674 49 ft 10 kts 178°
2026-04-28 05:40 19.09142 72.87724 49 ft 12 kts 95°
2026-04-28 05:40 19.09114 72.87794 47 ft 11 kts 158°
2026-04-28 05:40 19.09057 72.87855 48 ft 13 kts 96°
2026-04-28 05:41 19.09059 72.87963 48 ft 16 kts 89°
2026-04-28 05:41 19.09059 72.87998 48 ft 2 kts 89°
2026-04-28 05:41 19.09057 72.88021 48 ft 5 kts 105°
2026-04-28 05:41 19.09030 72.88051 48 ft 7 kts 156°
2026-04-28 05:42 19.09004 72.88053 47 ft 2 kts 189°
2026-04-28 05:42 19.09000 72.88053 47 ft 0 kts 179°
2026-04-28 05:42 19.08998 72.88053 47 ft 2 kts 179°
2026-04-28 05:42 19.08942 72.88054 46 ft 14 kts 179°
2026-04-28 05:43 19.08897 72.88052 46 ft 5 kts 195°
2026-04-28 05:43 19.08887 72.88008 46 ft 7 kts 273°
2026-04-28 05:43 19.08886 72.87830 48 ft 54 kts 269°
2026-04-28 05:43 19.08878 72.87201 50 ft 114 kts 269°
2026-04-28 05:44 19.08867 72.86567 49 ft 145 kts 269°
2026-04-28 05:44 19.08849 72.85464 500 ft 151 kts 269°
2026-04-28 05:44 19.08826 72.84298 918 ft 165 kts 268°
2026-04-28 05:44 19.08815 72.83083 1534 ft 165 kts 269°
2026-04-28 05:45 19.08802 72.81848 2107 ft 174 kts 271°
2026-04-28 05:45 19.08784 72.80494 2545 ft 194 kts 271°
2026-04-28 05:45 19.08761 72.79003 2946 ft 214 kts 272°
2026-04-28 05:45 19.08736 72.77345 3346 ft 236 kts 272°
2026-04-28 05:46 19.08708 72.75558 3791 ft 256 kts 272°
2026-04-28 05:46 19.08560 72.73602 4392 ft 271 kts 257°
2026-04-28 05:46 19.07665 72.71862 5193 ft 280 kts 230°
2026-04-28 05:46 19.06056 72.70665 6016 ft 288 kts 202°
2026-04-28 05:47 19.04076 72.70332 6848 ft 291 kts 175°
2026-04-28 05:47 19.02152 72.70940 7686 ft 292 kts 150°
2026-04-28 05:47 19.00496 72.72217 8397 ft 300 kts 142°
2026-04-28 05:47 18.98708 72.73499 8712 ft 321 kts 153°
2026-04-28 05:48 18.96545 72.74335 8839 ft 338 kts 167°
2026-04-28 05:48 18.94272 72.74679 8886 ft 321 kts 176°
2026-04-28 05:48 18.92113 72.74739 9047 ft 300 kts 181°
2026-04-28 05:48 18.90058 72.74693 9188 ft 293 kts 182°
2026-04-28 05:49 18.88045 72.74618 9447 ft 293 kts 182°
2026-04-28 05:49 18.86004 72.74542 10149 ft 294 kts 182°
2026-04-28 05:49 18.83890 72.74471 10487 ft 315 kts 182°
2026-04-28 05:49 18.81622 72.74402 10711 ft 336 kts 182°
2026-04-28 05:50 18.80372 72.74369 10974 ft 341 kts 181°
2026-04-28 05:50 18.77978 72.74515 11697 ft 344 kts 173°
2026-04-28 05:50 18.75695 72.75000 12434 ft 347 kts 165°
2026-04-28 05:50 18.73387 72.75790 13177 ft 350 kts 162°
2026-04-28 05:51 18.71063 72.76609 13884 ft 354 kts 162°
2026-04-28 05:51 18.68702 72.77432 14460 ft 360 kts 162°
2026-04-28 05:51 18.66304 72.78265 15054 ft 365 kts 162°
2026-04-28 05:51 18.63876 72.79106 15628 ft 370 kts 162°
2026-04-28 05:52 18.61412 72.79960 16201 ft 374 kts 162°
2026-04-28 05:52 18.58915 72.80826 16766 ft 379 kts 162°
2026-04-28 05:52 18.56393 72.81701 17312 ft 384 kts 162°
2026-04-28 05:52 18.53838 72.82587 17853 ft 389 kts 162°
2026-04-28 05:53 18.51254 72.83483 18359 ft 393 kts 162°
2026-04-28 05:53 18.48646 72.84388 18858 ft 396 kts 163°
2026-04-28 05:53 18.46017 72.85300 19374 ft 398 kts 163°
2026-04-28 05:53 18.43373 72.86216 19856 ft 402 kts 163°
2026-04-28 05:54 18.40710 72.87138 20350 ft 405 kts 163°
2026-04-28 05:54 18.38018 72.88071 20835 ft 408 kts 163°
2026-04-28 05:54 18.35347 72.88995 21315 ft 411 kts 163°
2026-04-28 05:54 18.32612 72.89942 21797 ft 414 kts 163°
2026-04-28 05:55 18.29864 72.90893 22267 ft 418 kts 163°
2026-04-28 05:55 18.27089 72.91853 22739 ft 421 kts 164°
2026-04-28 05:55 18.24300 72.92817 23211 ft 424 kts 164°
2026-04-28 05:55 18.21476 72.93793 23625 ft 428 kts 164°
2026-04-28 05:56 18.18640 72.94773 24023 ft 430 kts 165°
2026-04-28 05:56 18.15792 72.95757 24411 ft 433 kts 165°
2026-04-28 05:56 18.12917 72.96751 24790 ft 435 kts 165°
2026-04-28 05:56 18.10025 72.97749 25162 ft 438 kts 165°
2026-04-28 05:57 18.07123 72.98767 25523 ft 442 kts 164°
2026-04-28 05:57 18.04269 72.99895 25877 ft 445 kts 162°
2026-04-28 05:57 18.01369 73.01101 26229 ft 448 kts 162°
2026-04-28 05:57 17.98464 73.02312 26571 ft 451 kts 163°
2026-04-28 05:58 17.95526 73.03523 26906 ft 454 kts 163°
2026-04-28 05:58 17.92577 73.04725 27243 ft 456 kts 163°
2026-04-28 05:58 17.89606 73.05929 27546 ft 459 kts 163°
2026-04-28 05:58 17.86613 73.07138 27874 ft 461 kts 164°
2026-04-28 05:59 17.83599 73.08354 28179 ft 464 kts 164°
2026-04-28 05:59 17.80578 73.09573 28482 ft 466 kts 164°
2026-04-28 05:59 17.77571 73.10786 28776 ft 469 kts 164°
2026-04-28 05:59 17.74519 73.12017 29065 ft 471 kts 164°
2026-04-28 06:00 17.71441 73.13257 29327 ft 474 kts 165°
2026-04-28 06:00 17.68356 73.14500 29600 ft 476 kts 165°
2026-04-28 06:00 17.65256 73.15748 29888 ft 479 kts 165°
2026-04-28 06:00 17.62135 73.17005 30140 ft 481 kts 165°
2026-04-28 06:01 17.59003 73.18265 30374 ft 483 kts 165°
2026-04-28 06:01 17.55852 73.19533 30617 ft 485 kts 165°
2026-04-28 06:01 17.52731 73.20788 30866 ft 487 kts 165°
2026-04-28 06:01 17.49558 73.22065 31183 ft 488 kts 165°
2026-04-28 06:02 17.46389 73.23339 31526 ft 487 kts 165°
2026-04-28 06:02 17.43225 73.24611 31872 ft 487 kts 165°
2026-04-28 06:02 17.40065 73.25881 32215 ft 486 kts 165°
2026-04-28 06:02 17.36904 73.27150 32554 ft 485 kts 165°
2026-04-28 06:03 17.33818 73.28388 32886 ft 485 kts 165°
2026-04-28 06:03 17.30606 73.29677 33222 ft 484 kts 165°
2026-04-28 06:03 17.27461 73.30938 33573 ft 482 kts 165°
2026-04-28 06:03 17.24323 73.32195 33883 ft 482 kts 165°
2026-04-28 06:04 17.21201 73.33446 34157 ft 481 kts 165°
2026-04-28 06:04 17.18119 73.34680 34419 ft 480 kts 165°
2026-04-28 06:04 17.14996 73.35917 34668 ft 477 kts 167°
2026-04-28 06:04 17.11818 73.36889 34916 ft 471 kts 173°
2026-04-28 06:05 17.08628 73.37701 35155 ft 471 kts 173°
2026-04-28 06:05 17.05443 73.38518 35404 ft 470 kts 173°
2026-04-28 06:05 17.02309 73.39325 35649 ft 470 kts 173°
2026-04-28 06:05 16.99136 73.40144 35891 ft 469 kts 173°
2026-04-28 06:06 16.95964 73.40963 36133 ft 469 kts 173°
2026-04-28 06:06 16.92797 73.41780 36359 ft 469 kts 173°
2026-04-28 06:06 16.89632 73.42595 36578 ft 468 kts 173°
2026-04-28 06:06 16.86469 73.43410 36798 ft 468 kts 173°
2026-04-28 06:07 16.83304 73.44225 37002 ft 468 kts 173°
2026-04-28 06:07 16.80146 73.45038 37224 ft 467 kts 173°
2026-04-28 06:07 16.76991 73.45851 37423 ft 467 kts 173°
2026-04-28 06:07 16.73832 73.46663 37617 ft 467 kts 173°
2026-04-28 06:08 16.70683 73.47473 37818 ft 466 kts 173°
2026-04-28 06:08 16.67525 73.48286 37988 ft 466 kts 173°
2026-04-28 06:08 16.64375 73.49096 38171 ft 466 kts 173°
2026-04-28 06:08 16.61222 73.49906 38331 ft 466 kts 173°
2026-04-28 06:09 16.58114 73.50704 38469 ft 466 kts 173°
2026-04-28 06:09 16.54969 73.51512 38631 ft 465 kts 173°
2026-04-28 06:09 16.51822 73.52320 38781 ft 464 kts 173°
2026-04-28 06:09 16.48681 73.53126 38870 ft 465 kts 172°
2026-04-28 06:10 16.42412 73.54733 38879 ft 463 kts 172°
2026-04-28 06:10 16.36158 73.56336 38877 ft 463 kts 172°
2026-04-28 06:11 16.29901 73.57920 38884 ft 462 kts 173°
2026-04-28 06:11 16.23645 73.59496 38884 ft 462 kts 172°
2026-04-28 06:12 16.17401 73.61071 38882 ft 462 kts 172°
2026-04-28 06:12 16.11145 73.62649 38876 ft 462 kts 172°
2026-04-28 06:13 16.04921 73.64218 38877 ft 461 kts 172°
2026-04-28 06:13 15.98689 73.65787 38878 ft 461 kts 172°
2026-04-28 06:14 15.93698 73.67041 38872 ft 461 kts 172°
2026-04-28 06:14 15.87461 73.68605 38871 ft 461 kts 172°
2026-04-28 06:15 15.81260 73.70160 38874 ft 461 kts 172°
2026-04-28 06:15 15.75029 73.71721 38869 ft 461 kts 172°
2026-04-28 06:16 15.68790 73.73284 38871 ft 461 kts 172°
2026-04-28 06:16 15.62559 73.74843 38870 ft 460 kts 172°
2026-04-28 06:17 15.56315 73.76405 38859 ft 460 kts 172°
2026-04-28 06:18 15.47010 73.78730 38855 ft 460 kts 172°
2026-04-28 06:18 15.40784 73.80285 38851 ft 460 kts 171°
2026-04-28 06:19 15.34665 73.82389 38854 ft 467 kts 161°
2026-04-28 06:19 15.28696 73.85047 38854 ft 467 kts 161°
2026-04-28 06:20 15.22721 73.87683 38855 ft 467 kts 161°
2026-04-28 06:20 15.16740 73.90317 38853 ft 466 kts 161°
2026-04-28 06:21 15.10759 73.92950 38854 ft 466 kts 161°
2026-04-28 06:21 15.04779 73.95582 38853 ft 466 kts 161°
2026-04-28 06:22 14.98801 73.98210 38853 ft 466 kts 161°
2026-04-28 06:22 14.92861 74.00821 38855 ft 466 kts 161°
2026-04-28 06:23 14.86885 74.03446 38855 ft 466 kts 161°
2026-04-28 06:23 14.80919 74.06065 38853 ft 466 kts 161°
2026-04-28 06:24 14.74948 74.08685 38851 ft 465 kts 161°
2026-04-28 06:24 14.68979 74.11302 38857 ft 465 kts 161°
2026-04-28 06:25 14.63061 74.13896 38854 ft 465 kts 161°
2026-04-28 06:25 14.57085 74.16415 38857 ft 463 kts 163°
2026-04-28 06:26 14.51037 74.18717 38854 ft 462 kts 163°
2026-04-28 06:26 14.45010 74.21029 38858 ft 462 kts 163°
2026-04-28 06:27 14.38994 74.23363 38859 ft 462 kts 163°
2026-04-28 06:27 14.32985 74.25698 38861 ft 461 kts 163°
2026-04-28 06:28 14.26986 74.28028 38854 ft 461 kts 163°
2026-04-28 06:28 14.21015 74.30455 38855 ft 462 kts 159°
2026-04-28 06:29 14.15167 74.33182 38855 ft 461 kts 159°
2026-04-28 06:29 14.09349 74.35882 38854 ft 461 kts 159°
2026-04-28 06:30 14.03494 74.38595 38860 ft 461 kts 159°
2026-04-28 06:30 13.98634 74.40847 38858 ft 460 kts 159°
2026-04-28 06:31 13.92789 74.43553 38857 ft 460 kts 159°
2026-04-28 06:31 13.85989 74.46699 38855 ft 460 kts 159°
2026-04-28 06:32 13.81094 74.48964 38859 ft 460 kts 159°
2026-04-28 06:32 13.75243 74.51668 38861 ft 461 kts 159°
2026-04-28 06:33 13.69391 74.54372 38863 ft 461 kts 159°
2026-04-28 06:33 13.63573 74.57058 38869 ft 461 kts 159°
2026-04-28 06:34 13.57718 74.59760 38871 ft 461 kts 159°
2026-04-28 06:34 13.51861 74.62462 38879 ft 461 kts 159°
2026-04-28 06:35 13.46018 74.65157 38869 ft 458 kts 159°
2026-04-28 06:35 13.40196 74.67840 38871 ft 457 kts 159°
2026-04-28 06:36 13.34429 74.70495 38869 ft 457 kts 159°
2026-04-28 06:36 13.28670 74.73146 38869 ft 456 kts 159°
2026-04-28 06:37 13.22852 74.75823 38870 ft 455 kts 159°
2026-04-28 06:37 13.17107 74.78464 38873 ft 455 kts 159°
2026-04-28 06:38 13.11331 74.81118 38876 ft 454 kts 159°
2026-04-28 06:38 13.05562 74.83767 38881 ft 454 kts 159°
2026-04-28 06:39 12.99782 74.86378 38879 ft 453 kts 162°
2026-04-28 06:39 12.93760 74.88115 38878 ft 447 kts 173°
2026-04-28 06:40 12.87631 74.88657 38877 ft 443 kts 182°
2026-04-28 06:40 12.81459 74.88722 38870 ft 443 kts 182°
2026-04-28 06:41 12.75289 74.88808 38866 ft 444 kts 182°
2026-04-28 06:41 12.69110 74.88892 38860 ft 444 kts 182°
2026-04-28 06:42 12.62919 74.88975 38857 ft 444 kts 182°
2026-04-28 06:42 12.56723 74.89057 38853 ft 445 kts 182°
2026-04-28 06:43 12.50557 74.89139 38848 ft 446 kts 182°
2026-04-28 06:43 12.44348 74.89222 38855 ft 446 kts 182°
2026-04-28 06:44 12.38105 74.89305 38858 ft 447 kts 182°
2026-04-28 06:44 12.31876 74.89387 38860 ft 448 kts 182°
2026-04-28 06:45 12.25669 74.89470 38861 ft 449 kts 182°
2026-04-28 06:45 12.19421 74.89552 38863 ft 450 kts 182°
2026-04-28 06:46 12.13146 74.89636 38864 ft 450 kts 182°
2026-04-28 06:46 12.06872 74.89719 38867 ft 451 kts 181°
2026-04-28 06:47 12.00635 74.89801 38856 ft 450 kts 181°
2026-04-28 06:47 11.94363 74.89885 38856 ft 449 kts 181°
2026-04-28 06:48 11.88108 74.89967 38854 ft 449 kts 181°
2026-04-28 06:48 11.81858 74.90050 38857 ft 449 kts 181°
2026-04-28 06:49 11.75599 74.90133 38857 ft 449 kts 181°
2026-04-28 06:49 11.69350 74.90216 38856 ft 449 kts 181°
2026-04-28 06:50 11.63146 74.90297 38853 ft 449 kts 181°
2026-04-28 06:50 11.56900 74.90380 38852 ft 448 kts 181°
2026-04-28 06:51 11.50661 74.90462 38851 ft 448 kts 181°
2026-04-28 06:51 11.44415 74.90544 38851 ft 448 kts 181°
2026-04-28 06:52 11.38179 74.90627 38850 ft 448 kts 181°
2026-04-28 06:52 11.31978 74.90703 38852 ft 448 kts 181°
2026-04-28 06:53 11.25741 74.90760 38858 ft 448 kts 181°
2026-04-28 06:53 11.19499 74.90818 38861 ft 448 kts 181°
2026-04-28 06:54 11.13268 74.90878 38865 ft 448 kts 181°
2026-04-28 06:54 11.07033 74.90938 38859 ft 446 kts 181°
2026-04-28 06:55 11.00879 74.90998 38856 ft 444 kts 181°
2026-04-28 06:55 10.94701 74.91057 38854 ft 443 kts 181°
2026-04-28 06:56 10.88529 74.91117 38859 ft 443 kts 181°
2026-04-28 06:56 10.82348 74.91177 38861 ft 444 kts 181°
2026-04-28 06:57 10.76190 74.91237 38858 ft 445 kts 181°
2026-04-28 06:57 10.69989 74.91297 38865 ft 446 kts 181°
2026-04-28 06:58 10.63776 74.91357 38867 ft 446 kts 181°
2026-04-28 06:58 10.57561 74.91417 38868 ft 447 kts 181°
2026-04-28 06:59 10.51329 74.91477 38868 ft 447 kts 181°
2026-04-28 06:59 10.45098 74.91537 38866 ft 448 kts 181°
2026-04-28 07:00 10.38901 74.91597 38867 ft 448 kts 181°
2026-04-28 07:00 10.32651 74.91657 38866 ft 449 kts 181°
2026-04-28 07:01 10.26400 74.91717 38868 ft 449 kts 181°
2026-04-28 07:01 10.20146 74.91777 38864 ft 450 kts 181°
2026-04-28 07:02 10.13878 74.91838 38865 ft 450 kts 181°
2026-04-28 07:02 10.07605 74.91898 38868 ft 450 kts 181°
2026-04-28 07:03 10.01329 74.91959 38875 ft 451 kts 180°
2026-04-28 07:03 9.95092 74.92019 38879 ft 451 kts 180°
2026-04-28 07:04 9.88832 74.92079 38865 ft 448 kts 180°
2026-04-28 07:04 9.82595 74.92139 38861 ft 448 kts 180°
2026-04-28 07:05 9.76363 74.92199 38861 ft 448 kts 180°
2026-04-28 07:05 9.70134 74.92258 38862 ft 447 kts 180°
2026-04-28 07:06 9.63906 74.92318 38865 ft 447 kts 180°
2026-04-28 07:06 9.57718 74.92377 38861 ft 447 kts 180°
2026-04-28 07:07 9.51481 74.92437 38862 ft 447 kts 180°
2026-04-28 07:07 9.45250 74.92497 38861 ft 448 kts 180°
2026-04-28 07:08 9.39020 74.92557 38864 ft 448 kts 180°
2026-04-28 07:08 9.32776 74.92617 38867 ft 448 kts 180°
2026-04-28 07:09 9.26584 74.92676 38866 ft 448 kts 180°
2026-04-28 07:09 9.20351 74.92735 38863 ft 448 kts 180°
2026-04-28 07:10 9.14122 74.92795 38862 ft 448 kts 180°
2026-04-28 07:10 9.07882 74.92855 38860 ft 448 kts 180°
2026-04-28 07:11 9.01640 74.92914 38860 ft 448 kts 180°
2026-04-28 07:11 8.95400 74.92974 38860 ft 448 kts 180°
2026-04-28 07:12 8.89191 74.93033 38860 ft 449 kts 180°
2026-04-28 07:12 8.82902 74.93093 38861 ft 449 kts 180°
2026-04-28 07:13 8.76697 74.93153 38860 ft 449 kts 180°
2026-04-28 07:13 8.70436 74.93212 38859 ft 449 kts 180°
2026-04-28 07:14 8.64171 74.93272 38858 ft 450 kts 180°
2026-04-28 07:14 8.57911 74.93332 38861 ft 450 kts 180°
2026-04-28 07:15 8.51640 74.93392 38862 ft 450 kts 180°
2026-04-28 07:15 8.45414 74.93451 38859 ft 450 kts 180°
2026-04-28 07:16 8.39146 74.93511 38860 ft 450 kts 180°
2026-04-28 07:16 8.32868 74.93570 38858 ft 450 kts 180°
2026-04-28 07:17 8.26600 74.93630 38858 ft 451 kts 180°
2026-04-28 07:17 8.21388 74.93680 38859 ft 451 kts 180°
2026-04-28 07:18 8.15107 74.93740 38858 ft 451 kts 180°
2026-04-28 07:18 8.08831 74.93799 38858 ft 451 kts 180°
2026-04-28 07:19 8.02562 74.93859 38859 ft 451 kts 180°
2026-04-28 07:19 7.96277 74.93918 38859 ft 451 kts 180°
2026-04-28 07:20 7.90044 74.93978 38861 ft 451 kts 179°
2026-04-28 07:20 7.83769 74.94037 38858 ft 451 kts 179°
2026-04-28 07:21 7.77500 74.94097 38861 ft 450 kts 179°
2026-04-28 07:21 7.71229 74.94156 38857 ft 450 kts 179°
2026-04-28 07:22 7.61820 74.94246 38854 ft 450 kts 179°
2026-04-28 07:22 7.55601 74.94305 38851 ft 450 kts 179°
2026-04-28 07:23 7.49342 74.94364 38855 ft 449 kts 179°
2026-04-28 07:23 7.43084 74.94423 38853 ft 449 kts 179°
2026-04-28 07:24 7.36833 74.94483 38851 ft 449 kts 179°
2026-04-28 07:24 7.30569 74.94542 38851 ft 449 kts 179°
2026-04-28 07:25 7.24367 74.94601 38849 ft 449 kts 179°
2026-04-28 07:25 7.18124 74.94660 38846 ft 448 kts 179°
2026-04-28 07:26 7.11880 74.94719 38845 ft 448 kts 179°
2026-04-28 07:26 7.05632 74.94778 38841 ft 448 kts 179°
2026-04-28 07:27 6.99429 74.94837 38842 ft 448 kts 179°
2026-04-28 07:27 6.93170 74.94896 38843 ft 448 kts 179°
2026-04-28 07:28 6.86927 74.94955 38848 ft 448 kts 179°
2026-04-28 07:28 6.80726 74.95014 38844 ft 448 kts 179°
2026-04-28 07:29 6.74475 74.95073 38841 ft 448 kts 179°
2026-04-28 07:29 6.68227 74.95132 38845 ft 449 kts 179°
2026-04-28 07:30 6.61980 74.95191 38843 ft 449 kts 179°
2026-04-28 07:30 6.55763 74.95250 38846 ft 449 kts 179°
2026-04-28 07:31 6.49495 74.95309 38849 ft 449 kts 179°
2026-04-28 07:31 6.43236 74.95368 38845 ft 450 kts 179°
2026-04-28 07:32 6.37012 74.95427 38844 ft 450 kts 179°
2026-04-28 07:32 6.30749 74.95486 38849 ft 450 kts 179°
2026-04-28 07:33 6.24485 74.95545 38849 ft 450 kts 179°
2026-04-28 07:33 6.18211 74.95604 38845 ft 450 kts 179°
2026-04-28 07:34 6.11939 74.95664 38853 ft 450 kts 179°
2026-04-28 07:34 6.05697 74.95685 38845 ft 451 kts 183°
2026-04-28 07:35 5.99580 74.94353 38841 ft 452 kts 201°
2026-04-28 07:35 5.94161 74.91154 38835 ft 454 kts 218°
2026-04-28 07:36 5.89223 74.87201 38836 ft 454 kts 217°
2026-04-28 07:36 5.84266 74.83262 38844 ft 454 kts 217°
2026-04-28 07:37 5.79300 74.79316 38839 ft 455 kts 217°
2026-04-28 07:37 5.74364 74.75393 38848 ft 455 kts 217°
2026-04-28 07:38 5.69385 74.71436 38843 ft 456 kts 217°
2026-04-28 07:38 5.64407 74.67480 38851 ft 456 kts 217°
2026-04-28 07:39 5.59417 74.63517 38853 ft 457 kts 217°
2026-04-28 07:39 5.54461 74.59581 38854 ft 457 kts 217°
2026-04-28 07:40 5.49473 74.55621 38857 ft 457 kts 217°
2026-04-28 07:40 5.44481 74.51658 38857 ft 458 kts 217°
2026-04-28 07:41 5.39385 74.47824 38853 ft 457 kts 214°
2026-04-28 07:41 5.34229 74.44081 38856 ft 457 kts 214°
2026-04-28 07:42 5.29079 74.40308 38851 ft 457 kts 214°
2026-04-28 07:42 5.23972 74.36550 38850 ft 458 kts 215°
2026-04-28 07:43 5.18827 74.32763 38842 ft 458 kts 215°
2026-04-28 07:43 5.13689 74.28982 38843 ft 458 kts 215°
2026-04-28 07:44 5.08547 74.25198 38841 ft 458 kts 215°
2026-04-28 07:44 5.03408 74.21419 38842 ft 458 kts 215°
2026-04-28 07:45 4.98311 74.17670 38527 ft 455 kts 215°
2026-04-28 07:45 4.95746 74.15785 37480 ft 458 kts 215°
2026-04-28 07:45 4.93152 74.13880 36177 ft 466 kts 215°
2026-04-28 07:46 4.90513 74.11941 34866 ft 474 kts 215°
2026-04-28 07:46 4.87843 74.09979 33687 ft 478 kts 215°
2026-04-28 07:46 4.85156 74.08005 32415 ft 480 kts 215°
2026-04-28 07:46 4.82458 74.06023 31123 ft 482 kts 216°
2026-04-28 07:47 4.79737 74.04024 29838 ft 485 kts 216°
2026-04-28 07:47 4.77004 74.02017 28402 ft 487 kts 216°
2026-04-28 07:47 4.74273 74.00010 27332 ft 482 kts 216°
2026-04-28 07:47 4.71587 73.98036 26332 ft 475 kts 216°
2026-04-28 07:48 4.68972 73.96115 25353 ft 470 kts 216°
2026-04-28 07:48 4.66348 73.94188 24390 ft 465 kts 216°
2026-04-28 07:48 4.63751 73.92280 23464 ft 460 kts 216°
2026-04-28 07:48 4.61181 73.90392 22444 ft 454 kts 216°
2026-04-28 07:49 4.58654 73.88536 21521 ft 446 kts 216°
2026-04-28 07:49 4.56168 73.86710 20629 ft 439 kts 215°
2026-04-28 07:49 4.53727 73.84917 19740 ft 432 kts 215°
2026-04-28 07:49 4.51310 73.83142 18881 ft 426 kts 215°
2026-04-28 07:50 4.48935 73.81398 18021 ft 420 kts 215°
2026-04-28 07:50 4.46591 73.79678 17075 ft 414 kts 215°
2026-04-28 07:50 4.44250 73.78035 16162 ft 406 kts 208°
2026-04-28 07:50 4.41692 73.76916 15261 ft 399 kts 195°
2026-04-28 07:51 4.38988 73.76450 14386 ft 391 kts 181°
2026-04-28 07:51 4.36310 73.76440 13525 ft 386 kts 179°
2026-04-28 07:51 4.33638 73.76449 12617 ft 381 kts 179°
2026-04-28 07:51 4.31008 73.76453 11825 ft 374 kts 179°
2026-04-28 07:52 4.28462 73.76454 11379 ft 358 kts 179°
2026-04-28 07:52 4.26014 73.76455 10912 ft 345 kts 179°
2026-04-28 07:52 4.23650 73.76455 10457 ft 334 kts 179°
2026-04-28 07:52 4.21375 73.76456 10189 ft 317 kts 178°
2026-04-28 07:53 4.19228 73.76457 9900 ft 303 kts 178°
2026-04-28 07:53 4.17143 73.76458 9486 ft 294 kts 178°
2026-04-28 07:53 4.15112 73.76460 9332 ft 295 kts 178°
2026-04-28 07:53 4.13042 73.76463 9215 ft 297 kts 179°
2026-04-28 07:54 4.11016 73.76465 9091 ft 293 kts 179°
2026-04-28 07:54 4.08980 73.76466 8953 ft 293 kts 179°
2026-04-28 07:54 4.06927 73.76468 8622 ft 294 kts 179°
2026-04-28 07:54 4.04881 73.76470 8255 ft 293 kts 179°
2026-04-28 07:55 4.02842 73.76471 7888 ft 291 kts 179°
2026-04-28 07:55 4.00828 73.76472 7532 ft 288 kts 179°
2026-04-28 07:55 3.98855 73.76462 7175 ft 286 kts 183°
2026-04-28 07:55 3.96963 73.75931 6828 ft 284 kts 209°
2026-04-28 07:56 3.95507 73.74632 6473 ft 281 kts 236°
2026-04-28 07:56 3.94789 73.72838 6129 ft 278 kts 263°
2026-04-28 07:56 3.94744 73.70918 5784 ft 275 kts 272°
2026-04-28 07:56 3.94807 73.69017 5561 ft 275 kts 272°
2026-04-28 07:57 3.94867 73.67122 5502 ft 266 kts 272°
2026-04-28 07:57 3.94902 73.65325 5490 ft 250 kts 271°
2026-04-28 07:57 3.94917 73.63630 5464 ft 237 kts 270°
2026-04-28 07:57 3.94920 73.62004 5290 ft 231 kts 270°
2026-04-28 07:58 3.94917 73.60394 5019 ft 230 kts 270°
2026-04-28 07:58 3.94913 73.58821 4891 ft 220 kts 270°
2026-04-28 07:58 3.94909 73.57332 4825 ft 207 kts 270°
2026-04-28 07:58 3.94905 73.55972 4771 ft 190 kts 270°
2026-04-28 07:59 3.94902 73.54698 4674 ft 176 kts 270°
2026-04-28 07:59 3.94975 73.53517 4526 ft 166 kts 292°
2026-04-28 07:59 3.95766 73.52779 4305 ft 158 kts 349°
2026-04-28 07:59 3.96834 73.52855 4106 ft 153 kts 11°
2026-04-28 08:00 3.97885 73.53025 3904 ft 153 kts
2026-04-28 08:00 3.98941 73.53093 3704 ft 152 kts
2026-04-28 08:00 3.99998 73.53101 3508 ft 151 kts 359°
2026-04-28 08:00 4.01051 73.53101 3325 ft 151 kts 359°
2026-04-28 08:01 4.01689 73.53101 3204 ft 151 kts 359°
2026-04-28 08:01 4.02662 73.53101 3026 ft 151 kts 359°
2026-04-28 08:01 4.03712 73.53101 2831 ft 151 kts 359°
2026-04-28 08:01 4.04761 73.53101 2648 ft 150 kts 359°
2026-04-28 08:02 4.05808 73.53101 2438 ft 150 kts 359°
2026-04-28 08:02 4.06841 73.53101 2249 ft 150 kts 358°
2026-04-28 08:02 4.07884 73.53100 2058 ft 150 kts 359°
2026-04-28 08:02 4.08928 73.53100 1865 ft 149 kts 359°
2026-04-28 08:03 4.09967 73.53101 1674 ft 149 kts 358°
2026-04-28 08:03 4.10993 73.53100 1480 ft 150 kts 358°
2026-04-28 08:03 4.12032 73.53100 1287 ft 149 kts 359°
2026-04-28 08:03 4.13064 73.53100 1085 ft 148 kts 358°
2026-04-28 08:04 4.14094 73.53100 901 ft 148 kts 359°
2026-04-28 08:04 4.15127 73.53099 737 ft 147 kts 355°
2026-04-28 08:04 4.16147 73.52966 534 ft 147 kts 350°
2026-04-28 08:04 4.17161 73.52923 277 ft 147 kts 358°
2026-04-28 08:05 4.18179 73.52930 51 ft 144 kts 356°
2026-04-28 08:05 4.19110 73.52914 18 ft 113 kts 360°
2026-04-28 08:05 4.19694 73.52906 13 ft 55 kts 360°
2026-04-28 08:05 4.19968 73.52903 12 ft 36 kts 359°
2026-04-28 08:06 4.20213 73.52898 14 ft 35 kts 359°
2026-04-28 08:06 4.20451 73.52895 15 ft 34 kts 359°
2026-04-28 08:06 4.20545 73.52886 18 ft 11 kts 333°
2026-04-28 08:06 4.20586 73.52827 16 ft 11 kts 267°
2026-04-28 08:07 4.20556 73.52804 15 ft 5 kts 169°
2026-04-28 08:07 4.20484 73.52821 17 ft 11 kts 158°
2026-04-28 08:07 4.20384 73.52876 14 ft 22 kts 153°
2026-04-28 08:07 4.20278 73.52896 14 ft 24 kts 177°
2026-04-28 08:08 4.20098 73.52899 13 ft 27 kts 180°
2026-04-28 08:08 4.19910 73.52902 12 ft 18 kts 179°
2026-04-28 08:08 4.19826 73.52879 12 ft 12 kts 253°
2026-04-28 08:08 4.19816 73.52803 13 ft 9 kts 270°
2026-04-28 08:09 4.19817 73.52767 14 ft 0 kts 272°